Simultaneous Nadir Overpasses (SNOs) Predictions

Prediction of SNOs between AQUA and METOP-A Satellite Orbit:

Table of predicted SNOs for the next 14.0 days since TLE Epoch: 4/6/2017
Index Date (AQUA) Time (AQUA) Lat,Lon (AQUA) SZA (AQUA ) Date (METOP-A) Time (METOP-A) Lat,Lon (METOP-A) SZA (METOP-A ) Distance(km) Time Diff (sec)
1 04/08/2017 05:31:42 -73.90, -88.79 113.37 04/08/2017 05:31:20 -73.88, -88.80 113.39 2.67 22
2 04/08/2017 06:21:10 73.96, 78.73 66.68 04/08/2017 06:21:58 73.95, 78.70 66.67 1.30 48
3 04/11/2017 00:16:18 73.45, 171.00 65.12 04/11/2017 00:15:09 73.42, 169.21 65.16 56.83 69
4 04/11/2017 01:05:53 -73.91, -22.36 114.40 04/11/2017 01:05:41 -73.93, -22.27 114.39 3.26 12
5 04/11/2017 01:55:21 73.97, 145.15 65.65 04/11/2017 01:56:20 73.95, 145.11 65.62 3.27 59
6 04/13/2017 19:50:36 73.84,-123.38 64.50 04/13/2017 19:49:23 73.81,-123.47 64.49 3.80 73
7 04/13/2017 20:40:04 -73.94, 44.04 115.41 04/13/2017 20:40:03 -73.93, 44.13 115.42 3.04 1
8 04/13/2017 21:29:32 74.00,-148.46 64.65 04/13/2017 21:30:41 73.99,-148.38 64.63 2.47 69
9 04/16/2017 15:24:46 73.87, -57.00 63.53 04/16/2017 15:23:43 73.86, -56.96 63.52 2.14 63
10 04/16/2017 16:14:13 -73.92, 110.54 116.44 04/16/2017 16:14:24 -73.92, 110.53 116.43 0.81 11
11 04/16/2017 17:03:47 74.29, -82.67 63.95 04/16/2017 17:04:56 74.28, -81.25 63.89 42.84 69
12 04/19/2017 10:58:56 73.86, 9.48 62.53 04/19/2017 10:58:05 73.85, 9.43 62.53 1.95 51
13 04/19/2017 11:48:23 -73.91, 177.02 117.44 04/19/2017 11:48:46 -73.92, 176.92 117.42 3.24 23




NCC Satellite Simultaneous Nadir Overpasses (SNOs) Prediction Service
